Aeroporto :
LOGIN :

Iscrizione | Disclaimer

   EN    FR    IT 

 










Sommario :    VFR   VFR Marginale   IFR   IFR Intensivo   IFR Molto Intensivo
Visibilità : 
Base nubi : 
>= 8 km
>= 3000ft
5 / 8 km
1000 / 3000 ft
1500m / 5 km
500 / 1000 ft
800 / 1500m
200 / 500 ft
< 800m
< 200 ft
Simboli :   Temporali  Nebbia  Neve Forte  Precipitazioni Forti  Vento > 20 kt
SIGMETs :   Varie  Temporali  Ghiacco  Turbolenza  Onda orograficha  Ceneri Vulcaniche






- Altitudine del aeroporto : 503 ft
- Codice IATA : BLE


ESSD - Borlange

ULTIMO METAR :
  • 251320Z 23015G26KT 9999 BKN020 09/05 Q1005

METARs OBSOLETI :
  • 251250Z 23016KT BKN015 09/05 Q1005
  • 251220Z 23016KT 9999 BKN023 09/06 Q1005
  • 251150Z 23017G29KT 9999 BKN023 09/06 Q1005
  • 251120Z 24015KT 9999 BKN023 09/06 Q1005
  • 251050Z 24018KT 9999 BKN023 10/06 Q1005

TAF AMD TAF ESSD
Valido dal 25 a 12 ore il 25 a 15 ore UTC


251156Z 2512/2515 23015KT 9999 BKN020
TEMPO 2512/2514 24016G27KT
TEMPO 2514/2515 BKN014



MetMap, La meteo Aeronautica in un colpo d'occhio ! - Copyright ORBIFLY Dicembre 2007 - Disclaimer

ORBIFLY MET'MAP TEAM :

Programmazione e sviluppo : Alexandra Zaïnal
Concezione : Baudouin d'Aumeries
Aiuto per la programmazione : Marc-Olivier Méhu
Supporto tecnico e logistico : Manuel Goepfert
Aiuto per la traduzione : Arnaldo La Scala

Contatto : metmap@orbifly.com




FONTI E CREDITI :

   NOAA